Regional Weather Roundup
Issued by NWS

Home | Current Version | Previous Version | Text Only | Print | Product List | Glossary On
Versions: 1 2 3 4 5 6 7 8 9 10 11 12 13 14 15 16 17 18 19 20 21 22 23 24 25 26 27 28 29 30 31 32 33 34 35 36 37 38 39 40 41 42 43 44 45 46 47 48 49 50
000
ASHW40 PHFO 260843
RWRHI

WEATHER ROUNDUP FOR HAWAII
NATIONAL WEATHER SERVICE HONOLULU HI
1000 PM HST TUE APR 25 2017

THIS IS AN AUTOMATED REPORT THAT HAS NOT BEEN QUALITY CONTROLLED.

NOTE..."FAIR" INDICATES FEW OR NO CLOUDS BELOW 12,000 FEET WITH NO
SIGNIFICANT WEATHER AND/OR OBSTRUCTIONS TO VISIBILITY.

* - THESE SITES REPORT LIMITED FIELDS

HIZ001>004-260900-
KAUAI-NIIHAU-

CITY           SKY/WX    TMP DP  RH WIND       PRES   REMARKS
LIHUE APT      CLOUDY    73  70  90 W7        30.13F
PORT ALLEN*      N/A     73 N/A N/A E10         N/A
POIPU*           N/A     72 N/A N/A NE3         N/A
PRINCEVILLE*     N/A     72 N/A N/A S2          N/A
KOKOLE POINT*  NOT AVBL
MOLOAA DAIRY*    N/A     73  70  88 E2G9        N/A
WAIMEA HTS*      N/A     70  66  88 NE5G13      N/A
PUU OPAE*      NOT AVBL
PUU LUA*       NOT AVBL
MAKAHA RIDGE*    N/A     70  64  83 S2          N/A
$$

HIZ005>011-260900-
OAHU-

CITY           SKY/WX    TMP DP  RH WIND       PRES   REMARKS
HONOLULU       PTCLDY    77  66  68 NE8       30.10R
KALAELOA       CLEAR     75  66  73 NE3       30.12R
KANEOHE MCB    MOCLDY    78  70  76 E9G20     30.09R
WHEELER FIELD  PTCLDY    70  67  92 CALM      30.12R
BELLOWS*         N/A    N/A N/A N/A E16         N/A
KAHUKU*          N/A    N/A N/A N/A NE8G15      N/A
WHEELER*         N/A    N/A N/A N/A NW2         N/A
WAIANAE HARBOR   N/A    N/A N/A N/A E3          N/A
DILLINGHAM*      N/A     81  79  94 CALM        N/A
KAHUKU TRN*      N/A     79  75  89 W5G15       N/A
KAWAILOA*        N/A     70  64  83 E5G12       N/A
KII*             N/A     77  70  78 E16         N/A
MAKUA RANGE*     N/A     68  59  73 N5G10       N/A
OAHU FOREST NW NOT AVBL
SCHOFIELD BRK* NOT AVBL
SCHOFIELD S*   NOT AVBL
WAIANAE VLY*   NOT AVBL
KUAOKALA*      NOT AVBL
HONOULIUULI*   NOT AVBL
MOKUOLOE IS*   NOT AVBL
PALEHUA*       NOT AVBL
WAIAWA PHB*    NOT AVBL
$$

HIZ012>013-260900-
MOLOKAI-

CITY           SKY/WX    TMP DP  RH WIND       PRES   REMARKS
MOLOKAI AIRPT  CLEAR     68  65  90 NE7       30.11R
KALAUPAPA      NOT AVBL
MAKAPULAPAI*     N/A     75  68  78 E18G26      N/A
MOLOKAI 1*     NOT AVBL
PUU ALII*        N/A     58  56  93 NE3G18      N/A
$$

HIZ016-260900-
KAHOOLAWE-

CITY           SKY/WX    TMP DP  RH WIND       PRES   REMARKS
KAHOOLAWE*     NOT AVBL
HAKIOAWA*        N/A     73  64  73 MISG        N/A
HONOKANAIA*      N/A     78  59  51 NE17G32   30.01R
KANELOA*         N/A    N/A N/A N/A E22G35    30.14R
KEALIALALO*    NOT AVBL
LUA MAKIKA*    NOT AVBL
$$

HIZ014>015-260900-
LANAI-

CITY           SKY/WX    TMP DP  RH WIND       PRES   REMARKS
LANAI CITY     FAIR      70  64  81 N10       30.15R
LANAI 1*       NOT AVBL
$$

HIZ017>028-260900-
MAUI-

CITY           SKY/WX    TMP DP  RH WIND       PRES   REMARKS
KAHULUI        CLEAR     74  64  71 E3        30.08R
KAPALUA-W MAUI NOT AVBL
HANA AIRPORT   NOT AVBL
HANA*            N/A     75 N/A N/A SE5         N/A
HALEAKALA SUMM   N/A     46  -8  10 E23         N/A
MAALAEA BAY*     N/A     75 N/A N/A N8G14       N/A
HALEAKALA*     NOT AVBL
KAUPO GAP*     NOT AVBL
KULA 1*          N/A     48  46  93 E3          N/A
$$

HIZ023>026-260900-
BIG ISLAND OF HAWAII COAST AND LOWER SLOPES-

CITY           SKY/WX    TMP DP  RH WIND       PRES   REMARKS
KAILUA KONA    PTCLDY    77  65  66 CALM      30.07R
HILO           LGT RAIN  70  67  90 S7        30.13R
HONOKAA*         N/A     68 N/A N/A VRB1        N/A
KAWAIHAE MWT*    N/A     79 N/A N/A N3          N/A
KAWAIHAE*        N/A     79 N/A N/A NE3       30.09R
SOUTH POINT*     N/A     72 N/A N/A N17G28      N/A
UPOLU AIRPORT* NOT AVBL
KAMUELA*       CLOUDY    63  61  94 CALM      30.20R
HAKALAU*         N/A     45  39  81 SW5G10      N/A
KALOKO-HONOKO* NOT AVBL
PALI 2*          N/A     63  55  77 S10         N/A
KEALAKOMO*       N/A     75  63  64 NE7G14      N/A
KAUPULEHU*     NOT AVBL
KAPAPALA*        N/A     64  57  78 VRB5        N/A
LOWER KAHUKU*    N/A     61  57  88 N3G12       N/A
PUHE CS*         N/A     77  63  61 W2          N/A
PUHO CS*         N/A     75  65  71 NE2         N/A
PTA KEAMUKU*     N/A     63  59  88 CALM        N/A
WAIKOLOA*        N/A     73  64  73 NW2         N/A
$$

HIZ027>028-260900-
BIG ISLAND OF HAWAII INTERIOR AND SUMMMITS-

CITY           SKY/WX    TMP DP  RH WIND       PRES   REMARKS
BRADSHAW FIELD CLOUDY    52  50  93 CALM      30.40R
MK VISITOR CEN   N/A     55 -31   2 NE13        N/A
MAUNA KEA*       N/A     36 -26   6 E9          N/A  WCI  29
MAUNA LOA*       N/A     46 -36   2 MISG        N/A
MAUNA LOA 1*   NOT AVBL
PTA KIPUKA*      N/A     75  75 100 S5          N/A
PTA RANGE 17*    N/A     55  37  50 E15G26      N/A
PTA WEST*        N/A     73  72  94 N8G14       N/A
NENE CABIN*      N/A     46  37  71 E10G18      N/A
AHUMOA*        NOT AVBL
PTA PORTABLE*  NOT AVBL
PUU MALI*        N/A     50  45  81 SW3         N/A
$$

HIC003-260900-
NORTHWEST ISLANDS-

CITY           SKY/WX    TMP DP  RH WIND       PRES   REMARKS
MIDWAY ISLAND  CLOUDY    66  61  82 N16G23    30.10R
MIDWAY NOS*      N/A     66 N/A N/A MISG      30.12R
FRENCH FRIGATE NOT AVBL
$$

PHZ110>124-180-260900-
BUOY REPORTS

STATION/POSITION TIME  TEMP    WIND        PRES    WAVE   SWELL
                       AIR SEA DIR/SP/G            HT/PER HT/DIR
                 (UTC) (F)     (DEG/KT/KT) (MB)    (FT/S) (FT/D)
BUOY 51001       0830   76 77  100/ 10/ 12 1020.6R
BUOY 51101       0750   76 77  100/ 12/ 14 1020.9R   5/ 9   5/130
BUOY 51100       NOT AVBL
BUOY 51002       0830   78 78   90/ 17/ 21 1017.5R
BUOY 51003       0750   78 79   70/ 14/ 16 1018.2R   6/10   5/100
BUOY 51004       0750      78   80/ 16/ 19 1018.2R   7/ 9   5/ 80
BARBERS PT BUOY  NOT AVBL
WAIMEA BAY BUOY  0802      77                N/A     3/11   2/320
KAILUA BAY BUOY  0804      78                N/A     5/ 6   2/ 20
LANAI BUOY       0815      78                N/A     3/13   2/220
BARBERS PT 2     NOT AVBL
PAUWELA MAUI     0809      77                N/A     5/ 9   2/330
HILO             0812      79                N/A     6/ 9   2
KANEOHE BAY BUOY 0825      78                N/A     4/ 9   2/340
HANALEI KAUAI    0822      77                N/A     5/13   3/310
KAHULUI HARBOR   0818   76 79  240/  2/  4 1018.8
HONOLULU HARBOR  0818   78 79   90/  2/  6 1020.3
KILO NALU        NOT AVBL
HILO HARBOR      0818   72 77  220/  9/ 13 1020.2
MOKUOLOE         0736   77 80   80/ 11/ 13 1019.7R
NAWILIWILI       0818   72     240/  6/  8 1020.0
WHOTS BUOY       NOT AVBL
BUOY 51028       NOT AVBL
$$

......................KEY........................................
  SKY/WX - SKY CONDITIONS/PRESENT WEATHER
  TMP    - TEMPERATURE IN FAHRENHEIT
  DWPT   - DEWPOINT IN FAHRENHEIT
  RH     - RELATIVE HUMIDITY IN PERCENT
  WIND   - DIRECTION AND SPEED /MPH FOR ISLANDS...KTS FOR BUOYS/
  PRES   - MEAN SEA LEVEL PRESSURE IN INCHES OF HG
  VSB    - VISIBILITY IN MILES
  HX     - HEAT INDEX
  WCI    - WIND CHILL INDEX
  VRB    - VARIABLE WIND DIRECTION
  N/A    - NOT AVAILABLE




USA.gov is the U.S. government's official web portal to all federal, state and local government web resources and services.